Back to catalog

SL-8 DEB

AliveLEO
NORAD 22198·DEBRIS·🇷🇺 Russia

Launched Feb 12, 1991 from Plesetsk Cosmodrome

Loading…

Next Passes (next 24 hours)

TLE

AgingSource: Space-Track

Epoch: Sep 11, 2026, 16:44 UTC

1 22198U 91009CS  26254.69780412  .00000031  00000-0  38106-3 0  9992
2 22198  73.9198 348.3959 0146925 303.9339 210.6332 12.30660193594870

Track SL-8 DEB in real time with AllMySat

Download on the App Store